| Local Time | Windrichtung | Wind (kt) | Böen (kt) | Max (kt) | Temp (°C) | Feuchte (%) |
|---|---|---|---|---|---|---|
| 16:40 | NNW 348° | 2.8 | 4.4 | 4.4 | 7.2 | 86 |
| 16:30 | NNW 348° | 2.8 | 4.4 | 4.4 | 7.2 | 86 |
| 16:20 | N 352° | 2.7 | 4.4 | 4.4 | 6.9 | 90 |
| 16:10 | N 352° | 2.6 | 4.4 | 4.4 | 6.9 | 90 |
| 16:00 | NNW 348° | 2.5 | 4.4 | 4.4 | 6.9 | 92 |
| 15:50 | NNW 348° | 2.5 | 4.4 | 4.4 | 6.9 | 92 |
| 15:40 | NNW 338° | 2.3 | 4.4 | 4.4 | 6.7 | 96 |
| 15:30 | NNW 338° | 2.2 | 4.4 | 4.4 | 6.7 | 96 |
| 15:20 | NNW 339° | 2.0 | 3.9 | 4.2 | 6.3 | 96 |
| 15:10 | NNW 339° | 1.9 | 3.9 | 4.2 | 6.3 | 96 |
| 15:00 | NNW 337° | 1.7 | 3.5 | 4.2 | 6.3 | 96 |
| 14:50 | NNW 337° | 1.6 | 3.5 | 4.2 | 6.3 | 96 |
| 14:40 | NNW 339° | 1.5 | 3.5 | 4.2 | 5.9 | 97 |
| 14:30 | NNW 339° | 1.4 | 3.5 | 4.2 | 5.9 | 97 |
| 14:20 | NNW 343° | 1.2 | 3.5 | 4.2 | 6.2 | 97 |
| 14:10 | NNW 343° | 1.2 | 3.5 | 4.2 | 6.2 | 97 |
| 13:50 | NNW 337° | 1.0 | 3.2 | 4.2 | 6.1 | 97 |
| 13:40 | NNW 335° | 0.9 | 2.9 | 4.2 | 5.9 | 97 |
| 13:30 | NNW 335° | 0.9 | 2.9 | 4.2 | 5.9 | 97 |
| 13:20 | NNW 346° | 0.8 | 1.9 | 4.2 | 6.0 | 93 |
| 13:10 | NNW 346° | 0.8 | 1.9 | 4.2 | 6.0 | 93 |
| 13:00 | NNW 345° | 0.6 | 1.9 | 4.2 | 6.7 | 97 |
| 12:50 | NNW 345° | 0.6 | 1.9 | 4.2 | 6.7 | 97 |
| 12:40 | WNW 297° | 0.6 | 1.9 | 4.2 | 8.0 | 96 |
| 12:30 | WNW 297° | 0.6 | 1.9 | 4.2 | 8.0 | 96 |
| 12:20 | SSO 168° | 0.7 | 1.9 | 4.2 | 8.8 | 87 |
| 12:10 | SSO 168° | 0.7 | 1.9 | 4.2 | 8.8 | 87 |
| 12:00 | SO 139° | 0.7 | 1.9 | 4.2 | 7.9 | 94 |
| 11:50 | SO 139° | 0.7 | 1.9 | 4.2 | 7.9 | 94 |
| 11:40 | SO 134° | 0.7 | 1.9 | 4.2 | 7.9 | 86 |
| 11:30 | SO 134° | 0.7 | 1.9 | 4.2 | 7.9 | 86 |
| 11:20 | SO 131° | 0.6 | 1.8 | 4.2 | 7.1 | 95 |
| 11:10 | SO 131° | 0.6 | 1.8 | 4.2 | 7.1 | 95 |
| 11:00 | SO 138° | 0.6 | 1.8 | 4.2 | 6.7 | 86 |
| 10:50 | SO 138° | 0.6 | 1.8 | 4.2 | 6.7 | 86 |
| 10:40 | SO 133° | 0.5 | 1.8 | 4.2 | 6.7 | 95 |
| 10:30 | SO 133° | 0.5 | 1.8 | 4.2 | 6.7 | 95 |
| 10:20 | SO 130° | 0.4 | 1.6 | 4.2 | 6.4 | 96 |
| 10:10 | SO 130° | 0.4 | 1.6 | 4.2 | 6.4 | 96 |
| 10:00 | SO 141° | 0.4 | 1.5 | 4.2 | 6.3 | 89 |
| 09:50 | SO 141° | 0.4 | 1.5 | 4.2 | 6.3 | 89 |
| 09:40 | SO 138° | 0.4 | 1.5 | 4.2 | 6.0 | 94 |
| 09:30 | SO 138° | 0.4 | 1.5 | 4.2 | 6.0 | 94 |
| 09:20 | SO 128° | 0.4 | 1.4 | 4.2 | 5.7 | 96 |
| 09:10 | SO 128° | 0.4 | 1.7 | 4.2 | 5.7 | 96 |
| 09:00 | SO 130° | 0.5 | 2.3 | 4.2 | 6.0 | 87 |
| 08:50 | SO 130° | 0.6 | 2.4 | 4.2 | 6.0 | 87 |
| 08:40 | SSO 157° | 0.8 | 2.4 | 4.2 | 6.2 | 82 |
| 08:30 | SSO 157° | 0.8 | 2.4 | 4.2 | 6.2 | 82 |
| 08:20 | OSO 121° | 0.9 | 2.4 | 4.2 | 5.5 | 89 |
| 08:10 | OSO 121° | 0.9 | 2.4 | 4.2 | 5.5 | 89 |
| 08:00 | SSO 165° | 1.0 | 2.4 | 4.2 | 5.7 | 76 |
| 07:50 | SSO 165° | 1.0 | 2.4 | 4.2 | 5.7 | 76 |
| 07:40 | SO 133° | 1.2 | 2.4 | 4.2 | 5.7 | 74 |
| 07:30 | SO 133° | 1.2 | 2.5 | 4.2 | 5.7 | 74 |
| 07:20 | SO 127° | 1.4 | 3.2 | 4.2 | 5.7 | 68 |
| 07:10 | SO 127° | 1.5 | 3.2 | 4.2 | 5.7 | 68 |
| 07:00 | SSO 160° | 1.7 | 3.2 | 4.2 | 5.2 | 68 |
| 06:50 | SSO 160° | 1.7 | 3.2 | 4.2 | 5.2 | 68 |
| 06:40 | S 179° | 1.8 | 3.2 | 4.2 | 4.9 | 72 |
| 06:30 | S 179° | 1.9 | 4.2 | 4.2 | 4.9 | 72 |
| 06:20 | S 184° | 2.1 | 4.2 | 4.2 | 4.0 | 80 |
| 06:10 | S 184° | 2.1 | 4.2 | 4.2 | 4.0 | 80 |
| 06:00 | S 175° | 2.2 | 4.2 | 4.2 | 4.4 | 75 |
| 05:50 | S 175° | 2.2 | 4.2 | 4.2 | 4.4 | 75 |
| 05:40 | SSO 165° | 2.3 | 4.2 | 4.2 | 4.9 | 71 |
| 05:30 | SSO 165° | 2.3 | 4.2 | 4.2 | 4.9 | 71 |
| 05:20 | SSO 163° | 2.4 | 4.2 | 4.2 | 5.0 | 69 |
| 05:10 | SSO 163° | 2.4 | 4.2 | 4.2 | 5.0 | 69 |
| 05:00 | SSO 163° | 2.5 | 4.2 | 4.2 | 4.7 | 72 |
| 04:50 | SSO 163° | 2.5 | 4.2 | 4.2 | 4.7 | 72 |
| 04:40 | S 170° | 2.5 | 4.2 | 4.2 | 4.4 | 78 |
| 04:30 | S 170° | 2.4 | 4.2 | 4.2 | 4.4 | 78 |
| 04:20 | S 175° | 2.3 | 4.2 | 4.2 | 4.3 | 80 |
| 04:10 | S 175° | 2.2 | 4.2 | 4.2 | 4.3 | 80 |
| 04:00 | SSO 165° | 2.1 | 4.2 | 4.2 | 3.9 | 84 |
| 03:50 | SSO 165° | 2.1 | 4.2 | 4.2 | 3.9 | 84 |
| 03:40 | SSO 164° | 1.8 | 3.5 | 3.5 | 3.7 | 92 |
| 03:30 | SSO 164° | 1.8 | 3.5 | 3.5 | 3.7 | 92 |
| 03:20 | SSO 158° | 1.5 | 3.2 | 3.2 | 3.7 | 91 |
| 03:10 | SSO 158° | 1.5 | 3.2 | 3.2 | 3.7 | 91 |
| 03:00 | SSO 168° | 1.2 | 2.7 | 2.7 | 3.8 | 90 |
| 02:50 | SSO 168° | 1.2 | 2.7 | 2.7 | 3.8 | 90 |
| 02:40 | S 176° | 1.0 | 2.7 | 2.7 | 3.8 | 86 |
| 02:30 | S 176° | 1.0 | 2.7 | 2.7 | 3.8 | 86 |
| 02:20 | S 170° | 0.9 | 2.7 | 2.7 | 3.5 | 95 |
| 02:10 | S 170° | 0.9 | 2.7 | 2.7 | 3.5 | 95 |
| 02:00 | SSO 148° | 0.5 | 1.6 | 1.6 | 3.7 | 96 |
| 01:50 | SSO 148° | 0.5 | 1.6 | 5.9 | 3.7 | 96 |
| 01:40 | SO 134° | 0.5 | 2.1 | 5.9 | 3.7 | 96 |
| 01:30 | SO 134° | 0.6 | 2.1 | 5.9 | 3.7 | 96 |
| 01:20 | OSO 107° | 0.6 | 2.1 | 5.9 | 3.9 | 96 |
| 01:10 | OSO 107° | 0.6 | 2.9 | 5.9 | 3.9 | 96 |
| 01:00 | OSO 109° | 0.8 | 2.9 | 5.9 | 3.9 | 96 |
| 00:50 | OSO 109° | 0.9 | 2.9 | 5.9 | 3.9 | 96 |
| 00:40 | NNO 27° | 1.0 | 3.6 | 5.9 | 3.7 | 96 |
| 00:30 | NNO 27° | 1.1 | 3.8 | 5.9 | 3.7 | 96 |
| 00:20 | NW 319° | 1.2 | 3.8 | 5.9 | 3.7 | 96 |
| 00:10 | NW 319° | 1.2 | 3.8 | 5.9 | 3.7 | 96 |
| 00:00 | WSW 249° | 1.3 | 3.8 | 5.9 | 3.7 | 96 |